Location: Bas-Clignon
(44.2000°N, 6.6333°E)
Time: 03:13:41
(UTC+00:00)

Cosmos 1553 Rocket - Pass Details

Date: 03 February 2023
Orbit: 942 x 1007 km, 82.9° (Epoch: 27 March)

Event Time Altitude Azimuth Distance (km) Brightness Sun altitude
Rises 17:52:24 0° 170° (S) 3,593 7.0 -12.3°
Reaches altitude 10° 17:54:55 10° 166° (SSE) 2,656 6.3 -12.7°
Maximum altitude 18:00:45 52° 91° (E) 1,169 4.1 -13.7°
Drops below altitude 10° 18:06:42 10° 17° (NNE) 2,703 6.1 -14.8°
Sets 18:09:17 0° 13° (NNE) 3,663 6.8 -15.3°
